Elizabeth City, NC

10:41 PM EDT on September 20, 2017 (GMT -0400)
Elizabeth City Cgas-Regional

Weather History for KECG - May, 2013

Change the Weather History Date:

Thursday, May 23, 2013

  Actual Average Record
Temperature  
Mean Temperature 73 °F 69 °F  
Max Temperature 77 °F 79 °F 101 °F (1941)
Min Temperature 69 °F 59 °F 44 °F (2002)
Degree Days  
Heating Degree Days 0 1  
Month to date heating degree days 52 61  
Since 1 July heating degree days 2862 3222  
Cooling Degree Days 8 5  
Month to date cooling degree days 110 74  
Year to date cooling degree days 164 116  
Growing Degree Days 23 (Base 50)    
Moisture  
Dew Point 69 °F    
Average Humidity 85    
Maximum Humidity 93    
Minimum Humidity 76    
Precipitation  
Precipitation 0.04 in 0.12 in 1.50 in (2017)
Month to date precipitation 1.15 2.54  
Year to date precipitation 10.63 16.10  
Snow  
Snow 0.00 in - 0.00 in (2002)
Month to date snowfall 0.0  
Since 1 July snowfall T  
Snow Depth 0.00 in    
Sea Level Pressure  
Sea Level Pressure 29.94 in    
Wind  
Wind Speed 9 mph (South)    
Max Wind Speed 18 mph    
Max Gust Speed 25 mph    
Visibility 10 miles    
Events Rain    
T = Trace of Precipitation, MM = Missing Value Source: NWS Daily Summary

Daily Weather History Graph

Daily Weather History Graph

Search for Another Location

Airport or City:

Trip Planner

Search our weather history database for the weather conditions in past years. The results will help you decide how hot, cold, wet, or windy it might be!

Date:

Astronomy

May. 23, 2013 Rise Set
Actual Time 5:52 AM EDT 8:10 PM EDT
Civil Twilight 5:23 AM EDT 8:39 PM EDT
Nautical Twilight 4:47 AM EDT 9:16 PM EDT
Astronomical Twilight 4:08 AM EDT 9:55 PM EDT
Moon 6:42 PM EDT (5/23) 4:32 AM EDT (5/23)
Length of Visible Light 15h 16m
Length of Day
14h 18m
Waxing Gibbous, 97% of the Moon is Illuminated
May 23
Waxing Gibbous
May 25
Full
May 31
Last Quarter
Jun 8
New
Jun 16
First Quarter

Hourly Weather History & Observations

Time (EDT) Temp. Dew Point Humidity Pressure Visibility Wind Dir Wind Speed Gust Speed Precip Events Conditions
12:54 AM 72.0 °F 69.1 °F 91% 30.02 in 10.0 mi South 6.9 mph - N/A   Clear
1:54 AM 71.1 °F 69.1 °F 93% 30.00 in 10.0 mi South 4.6 mph - N/A   Clear
2:54 AM 71.1 °F 69.1 °F 93% 29.99 in 10.0 mi South 5.8 mph - N/A   Scattered Clouds
3:19 AM 71.6 °F 69.8 °F 94% 29.98 in 10.0 mi South 6.9 mph - N/A   Mostly Cloudy
3:32 AM 71.6 °F 69.8 °F 94% 29.98 in 10.0 mi South 8.1 mph - N/A   Partly Cloudy
3:54 AM 72.0 °F 70.0 °F 93% 29.98 in 10.0 mi South 6.9 mph - N/A   Clear
4:52 AM 71.6 °F 69.8 °F 94% 29.98 in 10.0 mi South 5.8 mph - N/A   Mostly Cloudy
4:54 AM 72.0 °F 70.0 °F 93% 29.99 in 10.0 mi South 5.8 mph - N/A   Mostly Cloudy
5:36 AM 73.4 °F 69.8 °F 88% 29.98 in 10.0 mi South 8.1 mph - N/A   Overcast
5:44 AM 73.4 °F 69.8 °F 88% 29.98 in 10.0 mi SSE 8.1 mph - N/A   Overcast
5:54 AM 73.0 °F 70.0 °F 90% 29.98 in 10.0 mi South 6.9 mph - N/A   Overcast
6:15 AM 73.4 °F 69.8 °F 88% 29.98 in 10.0 mi SSE 10.4 mph - N/A   Mostly Cloudy
6:54 AM 73.0 °F 69.1 °F 87% 29.99 in 10.0 mi South 8.1 mph - N/A   Mostly Cloudy
7:07 AM 73.4 °F 69.8 °F 88% 29.98 in 10.0 mi South 10.4 mph - N/A   Mostly Cloudy
7:16 AM 73.4 °F 69.8 °F 88% 29.98 in 10.0 mi South 10.4 mph 16.1 mph N/A   Mostly Cloudy
7:54 AM 73.9 °F 69.1 °F 85% 29.98 in 10.0 mi SSW 9.2 mph - N/A   Clear
8:54 AM 77.0 °F 70.0 °F 79% 29.99 in 10.0 mi South 12.7 mph 19.6 mph N/A   Mostly Cloudy
9:41 AM 73.4 °F 69.8 °F 88% 29.99 in 10.0 mi South 8.1 mph - 0.00 in Rain Light Rain
9:54 AM 73.0 °F 70.0 °F 90% 29.98 in 8.0 mi South 6.9 mph - 0.02 in Rain Light Rain
10:54 AM 73.9 °F 69.1 °F 85% 29.98 in 10.0 mi South 10.4 mph - 0.00 in   Mostly Cloudy
11:11 AM 73.4 °F 68.0 °F 83% 29.98 in - South 11.5 mph - N/A   Overcast
11:54 AM 73.0 °F 70.0 °F 90% 29.97 in 7.0 mi South 8.1 mph - 0.00 in Rain Light Rain
12:09 PM 73.4 °F 69.8 °F 88% 29.97 in 7.0 mi South 10.4 mph - 0.01 in Rain Light Rain
12:28 PM 73.4 °F 69.8 °F 88% 29.97 in - SSE 10.4 mph - 0.01 in Rain Light Rain
12:35 PM 73.4 °F 69.8 °F 88% 29.97 in - South 9.2 mph 17.3 mph 0.02 in Rain Light Rain
12:54 PM 72.0 °F 69.1 °F 91% 29.96 in 7.0 mi South 15.0 mph 25.3 mph 0.02 in Rain Light Rain
1:54 PM 73.9 °F 69.1 °F 85% 29.94 in - South 13.8 mph 24.2 mph 0.00 in   Mostly Cloudy
2:18 PM 75.2 °F 69.8 °F 83% 29.92 in - South 11.5 mph 21.9 mph N/A   Overcast
2:47 PM 75.2 °F 69.8 °F 83% 29.91 in 10.0 mi South 11.5 mph 18.4 mph N/A   Overcast
2:54 PM 75.0 °F 69.1 °F 82% 29.91 in 10.0 mi South 16.1 mph 21.9 mph N/A   Mostly Cloudy
3:54 PM 75.9 °F 68.0 °F 76% 29.88 in 10.0 mi SSE 16.1 mph 21.9 mph N/A   Mostly Cloudy
4:54 PM 75.0 °F 69.1 °F 82% 29.86 in 10.0 mi South 9.2 mph - N/A   Overcast
5:54 PM 73.9 °F 69.1 °F 85% 29.84 in 10.0 mi SSE 6.9 mph - N/A   Scattered Clouds
6:54 PM 73.9 °F 68.0 °F 82% 29.83 in 10.0 mi South 5.8 mph - N/A   Clear
7:54 PM 73.0 °F 68.0 °F 84% 29.83 in 10.0 mi South 5.8 mph - N/A   Scattered Clouds
8:54 PM 72.0 °F 69.1 °F 91% 29.84 in 10.0 mi SSW 3.5 mph - N/A   Mostly Cloudy
9:35 PM 71.6 °F 68.0 °F 88% 29.84 in 10.0 mi SSW 11.5 mph 17.3 mph N/A   Scattered Clouds
9:54 PM 71.1 °F 64.9 °F 81% 29.84 in 10.0 mi SW 9.2 mph - N/A   Partly Cloudy
10:54 PM 69.1 °F 66.0 °F 90% 29.84 in 10.0 mi SSW 8.1 mph - N/A   Clear
11:54 PM 69.1 °F 64.9 °F 87% 29.84 in 10.0 mi SSW 8.1 mph - N/A   Mostly Cloudy